Regional Weather Roundup
Issued by NWS Goodland, KS

Home | Current Version | Previous Version | Graphics & Text | Print | Product List | Glossary On
Versions: 1 2 3 4 5 6 7 8 9 10 11 12 13 14 15 16 17 18 19 20 21 22 23 24 25 26 27 28 29 30 31 32 33 34 35 36 37 38 39 40 41 42 43 44 45 46 47 48 49 50
000
ASUS43 KGLD 302008
RWRGLD

GOODLAND FORECAST AREA HOURLY WEATHER ROUNDUP
NATIONAL WEATHER SERVICE GOODLAND KS
200 PM MDT SUN AUG 30 2015

...OFFICIAL OBSERVATIONS...

CITY           SKY/WX    TMP DP  RH WIND       PRES   REMARKS
GOODLAND KS    SUNNY     91  39  16 S20G26    30.02F HAZE
HILL CITY KS   SUNNY     94  46  19 S10G24    29.99F
IMPERIAL NEB   SUNNY     95  40  14 S21G35    29.97F
MCCOOK NEB     SUNNY     96  41  15 S21       29.97F
AKRON CO       MOSUNNY   96  44  16 SW14      30.02F
BURLINGTON CO  SUNNY     88  45  22 S18G29    30.05F
LIMON CO       SUNNY     88  46  23 S12       30.10F
$$

...UNOFFICIAL OBSERVATIONS...

CITY           SKY/WX    TMP DP  RH WIND       PRES   REMARKS
COLBY KS       SUNNY     93  45  18 SE17G25   30.02F
GOVE KS          N/A     93  32  11 MISG        N/A
LENORA KS        N/A     92  32  12 MISG        N/A
NORTON KS      SUNNY     90  43  19 SE13      29.98F
SHARON SPRINGS   N/A     91  47  21 S14G26      N/A
YUMA CO          N/A     93  53  25 CALM        N/A
$$


USA.gov is the U.S. government's official web portal to all federal, state and local government web resources and services.